Wind_Speed
12 12 12 12 12 13 12 12 12 13 14 15 16 16 16 16 16 15 15 15 14 15 15 15 15 16 16 16 17 16 15 15 15 15 15 14 14 14 14 14 13 12 12
13 13 13 14 14 14 14 13 14 14 15 15 16 16 16 16 17 16 16 16 16 16 16 16 16 17 17 17 16 16 16 16 16 16 16 15 15 15 15 15 14 13 12
14 14 14 15 15 15 16 15 15 16 16 16 16 17 16 16 16 16 16 16 16 17 17 16 16 16 16 17 17 17 17 17 16 16 16 16 16 16 15 15 14 13 12
16 16 16 16 16 16 17 16 16 16 16 17 17 17 17 16 16 16 16 16 17 17 17 17 17 17 17 17 17 17 16 16 16 16 17 17 16 16 16 15 15 14 13
17 17 17 17 17 17 17 17 17 17 17 17 17 17 16 16 16 16 16 16 17 17 17 17 17 17 17 17 17 17 17 17 16 17 17 17 17 16 16 16 15 15 14
17 17 18 18 18 18 18 18 18 18 18 17 17 17 17 17 16 16 16 16 17 17 17 17 17 17 17 17 17 17 17 17 16 17 17 17 17 17 17 16 16 15 15
17 17 18 19 19 19 19 18 18 18 18 18 18 17 18 18 18 18 17 17 17 17 17 17 17 17 16 16 16 17 17 17 16 17 17 17 17 17 17 17 17 17 17
19 19 19 19 19 20 20 19 19 18 18 18 18 18 18 18 18 18 17 17 17 17 16 17 17 17 17 17 17 17 17 16 16 16 16 17 17 17 17 17 18 18 18
20 20 20 20 20 20 20 20 20 20 19 19 20 19 18 18 18 18 17 17 17 17 17 16 17 17 17 17 17 17 17 17 17 16 17 17 17 17 17 17 18 19 19
21 21 21 22 22 21 21 21 21 21 21 20 20 20 20 19 18 17 18 17 17 16 16 16 17 17 17 17 18 18 18 17 17 17 17 17 17 17 18 18 18 19 19
22 22 23 23 22 22 22 22 22 22 21 21 20 20 20 19 18 18 18 18 18 17 17 17 16 17 17 17 17 18 18 18 18 18 18 17 18 18 18 18 19 20 19
22 23 23 23 23 23 22 22 22 22 22 21 21 20 20 19 19 18 18 18 18 19 18 18 17 17 18 18 18 18 18 18 18 19 19 19 18 18 18 19 19 19 19
22 23 23 24 24 24 23 23 23 22 22 22 21 20 20 20 19 19 19 19 19 20 20 19 19 19 19 19 19 19 19 19 20 20 20 19 19 19 19 20 19 19 18
23 23 24 24 24 24 24 23 22 22 22 22 22 21 21 21 21 21 21 21 20 20 21 21 20 20 20 20 20 20 20 20 20 20 20 20 20 20 21 20 20 20 20
24 24 24 25 25 24 24 24 23 23 22 22 22 22 22 22 22 22 22 22 22 22 22 22 22 22 21 20 20 21 21 21 21 21 21 20 20 21 21 21 21 21 21
24 25 25 25 25 25 24 24 24 24 23 23 23 23 23 22 23 23 23 23 23 23 22 22 23 23 23 22 22 21 21 22 22 22 22 22 22 21 21 22 23 23 22
25 25 26 26 26 25 25 24 24 24 24 24 25 24 24 24 24 24 24 24 24 24 23 23 23 23 24 24 23 23 22 22 23 23 23 23 23 23 22 23 23 24 23
27 27 27 27 27 26 25 24 24 24 24 25 25 25 26 26 27 27 26 25 25 25 25 25 25 25 25 25 24 24 24 24 24 25 25 25 24 24 24 24 24 24 24
28 28 28 28 28 27 27 26 25 25 25 25 26 26 26 27 27 27 27 27 26 26 26 26 25 26 25 25 25 25 25 25 25 25 25 25 25 25 24 24 24 24 24
29 29 29 29 29 28 28 28 27 26 26 26 26 26 27 28 28 28 28 28 28 28 28 27 27 26 26 26 26 26 26 26 26 26 25 25 25 25 24 24 24 24 24
29 29 29 29 29 28 28 29 29 29 29 29 28 28 29 29 29 29 29 30 29 29 29 28 28 27 27 27 27 27 27 27 27 27 26 26 25 25 25 24 24 24 23
30 30 30 29 29 29 29 29 30 30 30 30 30 30 30 30 30 30 30 30 30 30 30 29 29 28 28 27 27 28 28 28 28 28 27 27 26 25 25 25 25 24 24
32 31 31 30 30 30 30 31 31 31 31 31 31 31 31 31 31 31 31 31 31 31 31 31 30 30 29 29 28 28 28 28 28 28 28 27 27 26 25 25 24 24 24
33 33 32 32 31 31 32 32 32 33 33 32 32 31 32 32 32 32 31 32 31 31 31 31 31 30 30 29 29 29 28 27 28 28 27 27 26 25 25 25 25 24 24
34 34 34 33 33 32 32 32 33 33 34 34 33 33 32 32 32 33 33 33 32 32 32 32 31 31 30 29 28 29 29 28 27 27 27 27 26 26 25 25 26 25 25
35 35 35 35 34 34 34 33 33 33 33 34 34 33 33 33 33 33 34 34 34 33 32 32 31 30 30 29 29 30 30 30 29 29 29 29 28 28 28 27 28 28 27
Wind_Direction
290 289 287 288 292 292 292 289 286 286 287 287 284 283 284 284 284 283 283 283 280 277 278 278 280 282 284 287 286 283 278 275 272 274 274 274 274 274 275 276 277 276 274
288 286 286 286 287 289 290 288 288 287 288 288 286 284 284 284 283 282 282 282 282 281 281 280 280 280 283 284 284 282 281 278 276 275 274 272 273 273 272 272 272 273 271
286 285 285 284 284 285 286 285 286 288 287 286 285 285 285 284 283 283 283 283 283 280 277 278 281 283 283 282 283 283 281 278 274 272 271 270 271 272 271 272 269 269 268
285 284 284 283 282 283 283 283 284 286 285 285 285 284 283 282 281 282 282 282 282 283 281 279 280 281 283 283 282 282 281 278 275 273 271 270 270 269 271 272 269 266 267
284 283 283 283 282 282 282 283 284 284 284 284 284 283 281 280 280 280 279 279 280 281 282 281 278 278 280 283 282 282 280 278 275 274 273 270 268 269 270 269 268 266 264
287 285 282 282 281 281 281 283 284 283 283 283 282 281 281 280 280 279 280 280 281 282 282 281 279 278 279 282 283 283 281 279 277 276 273 270 269 269 268 266 266 267 264
289 288 286 284 282 281 282 283 283 283 282 280 280 281 281 279 279 280 280 281 283 283 282 280 279 280 280 280 283 284 280 279 276 275 274 272 271 270 268 266 266 266 266
288 288 288 287 285 282 282 282 282 281 280 278 278 280 281 280 280 280 280 281 282 283 283 281 279 279 280 279 281 284 282 280 279 276 275 274 273 273 270 268 267 268 268
285 286 285 285 286 285 283 282 281 279 278 279 278 278 279 279 280 280 279 280 281 282 283 281 279 279 278 279 281 282 281 279 280 278 278 277 277 275 273 270 270 269 269
286 284 284 285 286 285 283 283 283 280 277 277 278 277 278 277 279 280 279 278 279 280 281 280 279 277 278 278 278 279 280 278 278 278 277 276 276 275 274 273 271 269 267
289 286 285 284 285 285 285 284 283 281 278 276 276 276 276 276 277 278 277 275 277 278 277 277 277 277 278 278 277 279 279 278 278 278 278 277 278 276 274 273 271 268 266
291 288 286 285 285 286 285 283 281 280 278 276 274 274 273 274 276 276 276 275 276 277 276 275 276 277 277 277 278 279 279 279 279 279 279 277 276 276 274 272 269 267 267
292 290 289 287 286 286 285 282 281 279 278 277 275 274 273 273 275 275 276 276 277 277 276 276 275 276 279 279 279 279 278 278 278 278 278 277 274 273 271 269 268 267 266
293 291 289 288 287 285 284 282 280 279 278 276 275 274 273 274 275 275 276 276 277 276 275 276 275 275 278 280 280 280 280 279 277 275 274 273 271 269 270 269 268 266 264
292 290 289 289 288 286 285 281 279 276 275 275 275 274 273 274 276 276 276 276 277 276 274 275 276 277 277 278 278 278 279 280 278 276 273 271 271 270 268 266 265 263 262
292 289 289 290 288 286 284 281 279 276 274 273 274 275 273 272 273 274 276 277 276 276 275 274 276 277 277 278 277 277 276 278 277 276 275 273 272 270 267 266 265 265 263
291 291 291 290 288 286 284 281 279 278 277 274 273 274 274 272 273 276 277 277 277 277 276 276 276 277 278 278 277 276 276 276 276 276 276 274 272 270 268 267 266 266 264
291 291 290 289 287 285 283 280 278 278 278 277 275 274 274 273 274 275 277 278 278 278 277 276 276 276 277 277 278 277 276 276 275 275 276 274 272 270 268 267 267 265 265
290 291 291 289 288 285 282 281 279 278 277 277 276 275 274 274 274 275 276 278 277 278 279 278 277 276 277 276 277 277 277 277 278 277 275 273 271 270 268 267 267 266 265
289 290 290 289 287 285 283 282 281 279 277 277 276 276 276 276 276 275 275 276 277 277 278 278 279 278 277 277 275 275 276 277 277 277 275 273 271 269 268 267 267 266 265
290 291 291 291 288 285 283 282 281 280 278 277 277 277 276 277 276 275 275 276 276 277 277 278 277 277 276 275 274 274 275 277 277 276 274 271 270 269 267 267 266 266 265
289 290 291 290 288 286 283 281 280 281 279 277 277 277 277 276 276 275 274 274 274 275 275 275 275 276 275 276 275 274 274 275 275 275 274 271 269 268 266 265 265 266 266
288 288 288 289 289 286 283 281 280 280 280 277 277 278 277 276 276 275 273 273 273 274 274 274 273 274 274 273 274 275 275 275 275 274 272 269 269 268 267 266 265 265 265
287 287 287 287 289 288 285 283 280 279 279 278 278 278 278 277 276 276 274 272 272 273 273 273 272 271 272 272 272 274 274 274 274 274 271 269 267 266 265 265 265 265 265
286 287 286 286 286 287 286 284 283 281 280 278 277 276 276 276 276 275 274 273 272 272 271 271 270 269 270 270 272 272 271 271 273 273 270 266 264 265 265 265 265 265 264
287 286 285 286 285 285 285 285 285 283 281 279 277 276 275 274 275 274 272 272 272 272 270 269 268 267 268 269 269 270 269 270 272 271 269 265 264 264 264 264 265 265 264
Height
5853 5853 5852 5852 5852 5852 5851 5851 5851 5850 5850 5850 5849 5849 5849 5849 5848 5848 5848 5849 5848 5848 5848 5848 5849 5849 5849 5849 5849 5849 5849 5849 5850 5850 5850 5850 5851 5851 5851 5852 5852 5853 5853
5851 5850 5850 5850 5849 5849 5849 5849 5848 5848 5847 5847 5846 5846 5846 5846 5845 5845 5845 5845 5845 5845 5845 5845 5845 5845 5846 5846 5846 5846 5846 5846 5846 5846 5847 5847 5847 5847 5848 5848 5849 5849 5850
5848 5847 5847 5847 5847 5846 5846 5845 5845 5844 5844 5844 5843 5843 5842 5842 5842 5842 5842 5842 5842 5842 5841 5841 5842 5842 5842 5842 5842 5842 5842 5842 5842 5843 5843 5843 5844 5844 5844 5845 5845 5846 5847
5844 5844 5844 5843 5843 5843 5842 5842 5841 5841 5840 5840 5839 5839 5839 5838 5838 5838 5838 5838 5838 5838 5838 5838 5838 5838 5838 5838 5838 5838 5838 5838 5838 5839 5839 5839 5840 5840 5841 5841 5842 5842 5843
5841 5840 5840 5840 5839 5839 5838 5838 5838 5837 5837 5836 5836 5835 5835 5835 5834 5834 5834 5834 5834 5834 5834 5834 5834 5834 5834 5834 5834 5834 5834 5834 5835 5834 5835 5835 5836 5836 5837 5837 5838 5839 5840
5837 5836 5836 5836 5835 5835 5834 5834 5834 5833 5833 5832 5832 5831 5831 5831 5831 5830 5830 5830 5830 5830 5830 5830 5830 5830 5830 5830 5830 5830 5830 5830 5830 5830 5831 5831 5831 5832 5833 5833 5834 5835 5835
5833 5832 5832 5831 5831 5831 5830 5830 5829 5829 5828 5828 5828 5827 5827 5826 5826 5826 5826 5826 5826 5826 5826 5826 5826 5826 5826 5826 5826 5826 5826 5827 5826 5826 5827 5827 5827 5828 5828 5829 5830 5830 5831
5829 5828 5828 5827 5826 5826 5826 5825 5825 5824 5823 5823 5823 5822 5822 5823 5822 5822 5822 5821 5822 5821 5821 5821 5821 5822 5822 5822 5822 5822 5822 5822 5822 5822 5822 5823 5823 5823 5824 5825 5825 5826 5826
5824 5824 5823 5822 5822 5821 5820 5820 5820 5819 5818 5818 5818 5818 5818 5817 5817 5817 5817 5817 5817 5817 5817 5817 5817 5817 5818 5818 5818 5818 5818 5818 5818 5818 5818 5818 5819 5819 5819 5820 5820 5821 5821
5820 5819 5818 5817 5816 5816 5815 5814 5814 5814 5813 5813 5813 5812 5813 5812 5813 5812 5812 5812 5812 5812 5812 5812 5812 5812 5813 5813 5813 5813 5813 5813 5813 5813 5814 5814 5814 5814 5814 5815 5815 5816 5816
5814 5813 5812 5812 5811 5810 5809 5809 5808 5808 5807 5807 5807 5807 5807 5807 5807 5807 5807 5807 5807 5807 5808 5808 5807 5807 5808 5808 5808 5809 5809 5809 5809 5809 5809 5809 5809 5809 5809 5810 5810 5810 5811
5809 5808 5807 5806 5805 5804 5803 5803 5802 5802 5801 5801 5802 5802 5802 5802 5801 5801 5801 5802 5802 5803 5803 5803 5802 5802 5803 5803 5803 5804 5804 5804 5804 5804 5804 5804 5804 5804 5804 5804 5804 5805 5805
5804 5802 5801 5800 5799 5798 5797 5797 5796 5796 5795 5795 5796 5796 5796 5796 5796 5796 5796 5796 5797 5797 5797 5797 5797 5797 5797 5798 5798 5798 5799 5799 5799 5799 5798 5798 5798 5798 5798 5798 5798 5799 5800
5799 5797 5795 5794 5793 5792 5791 5790 5790 5790 5789 5789 5790 5790 5790 5791 5791 5791 5791 5791 5791 5791 5791 5791 5791 5792 5792 5792 5792 5793 5793 5793 5793 5793 5793 5792 5792 5792 5792 5792 5793 5793 5794
5793 5791 5789 5788 5786 5785 5784 5783 5783 5783 5783 5783 5783 5784 5784 5785 5785 5785 5785 5785 5785 5785 5786 5786 5786 5786 5786 5786 5786 5787 5787 5787 5787 5786 5786 5786 5786 5786 5786 5786 5787 5787 5788
5787 5785 5783 5781 5780 5778 5777 5777 5776 5776 5777 5777 5777 5777 5778 5778 5779 5779 5779 5779 5779 5779 5779 5780 5780 5780 5780 5780 5780 5780 5780 5780 5780 5780 5780 5780 5780 5779 5779 5780 5780 5781 5782
5780 5778 5777 5775 5773 5772 5771 5770 5770 5770 5770 5770 5770 5771 5771 5772 5772 5772 5772 5772 5772 5772 5773 5773 5773 5773 5773 5774 5774 5774 5774 5774 5773 5773 5773 5773 5773 5772 5772 5773 5773 5774 5774
5774 5772 5770 5768 5766 5765 5764 5763 5763 5763 5764 5764 5763 5764 5764 5765 5765 5765 5766 5766 5765 5765 5766 5766 5766 5766 5766 5767 5767 5767 5767 5767 5766 5766 5766 5765 5765 5765 5765 5765 5766 5766 5767
5768 5765 5763 5761 5759 5758 5757 5756 5756 5756 5756 5756 5756 5756 5757 5757 5758 5758 5758 5758 5758 5758 5758 5759 5759 5759 5759 5759 5759 5759 5759 5759 5759 5758 5758 5758 5758 5758 5758 5758 5758 5759 5760
5760 5758 5756 5753 5752 5750 5749 5749 5749 5749 5749 5749 5749 5749 5749 5749 5750 5750 5751 5751 5751 5751 5751 5751 5751 5751 5751 5751 5752 5752 5752 5752 5751 5751 5750 5750 5750 5750 5750 5750 5751 5751 5752
5752 5750 5747 5745 5744 5742 5742 5741 5741 5741 5741 5741 5741 5741 5741 5741 5741 5742 5742 5743 5743 5743 5743 5743 5743 5743 5743 5744 5744 5744 5744 5744 5743 5743 5743 5743 5743 5743 5743 5743 5744 5744 5745
5744 5741 5739 5737 5736 5734 5733 5733 5732 5732 5732 5732 5732 5732 5732 5733 5733 5733 5733 5733 5734 5734 5734 5735 5735 5735 5735 5735 5735 5735 5736 5736 5736 5735 5735 5735 5735 5735 5736 5736 5736 5737 5737
5735 5733 5731 5729 5727 5726 5724 5724 5723 5723 5723 5723 5723 5723 5723 5723 5723 5724 5724 5724 5724 5725 5725 5725 5726 5726 5726 5727 5727 5727 5727 5727 5727 5726 5726 5727 5727 5727 5727 5728 5729 5729 5730
5726 5724 5722 5720 5718 5717 5715 5714 5713 5713 5713 5713 5713 5713 5713 5713 5713 5714 5714 5714 5715 5715 5715 5716 5716 5716 5717 5717 5717 5718 5718 5718 5718 5718 5718 5718 5719 5719 5720 5720 5721 5722 5722
5716 5714 5713 5711 5709 5707 5706 5704 5703 5703 5702 5703 5703 5702 5702 5703 5704 5704 5704 5704 5705 5705 5705 5706 5706 5706 5707 5707 5707 5708 5709 5709 5709 5709 5709 5710 5710 5711 5712 5712 5712 5713 5714
5706 5704 5703 5701 5700 5698 5696 5694 5693 5692 5692 5692 5692 5692 5692 5693 5693 5693 5693 5693 5694 5695 5695 5696 5696 5696 5696 5697 5698 5698 5699 5699 5700 5700 5700 5701 5701 5702 5703 5704 5704 5705 5705